When you browse on this site, cookies collect data to enhance your experience and personalize the content and advertising you see.
Visit our Privacy Policy to learn more. By continuing to use the site, you agree to this use of cookies and data.

Stündliche Wetter Bartoszki

Heute, 9 Juli, Donnerstag

Zeit Temperatur Niederschläge Wind Luftdruck Luftfeuchtigkeit
00:00 +9°C° 0 mm 2 m/S 744 mmHg 93%
01:00 +9°C° 0 mm 2 m/S 744 mmHg 94%
02:00 +8°C° 0 mm 2 m/S 744 mmHg 93%
03:00 +8°C° 0 mm 2 m/S 744 mmHg 93%
04:00 +8°C° 0 mm 2 m/S 744 mmHg 93%
05:00 +10°C° 0 mm 2 m/S 744 mmHg 88%
06:00 +12°C° 0 mm 2 m/S 744 mmHg 84%
07:00 +13°C° 0 mm 3 m/S 745 mmHg 78%
08:00 +14°C° 0 mm 3 m/S 745 mmHg 72%
09:00 +17°C° 0 mm 3 m/S 745 mmHg 67%
10:00 +18°C° 0 mm 3 m/S 745 mmHg 61%
11:00 +19°C° 0.2 mm 4 m/S 745 mmHg 61%
12:00 +19°C° 0.2 mm 4 m/S 745 mmHg 61%
13:00 +20°C° 0.2 mm 4 m/S 745 mmHg 61%
14:00 +20°C° 0.3 mm 4 m/S 744 mmHg 63%
15:00 +20°C° 0.3 mm 4 m/S 744 mmHg 65%
16:00 +19°C° 0.3 mm 4 m/S 743 mmHg 67%
17:00 +18°C° 0.6 mm 3 m/S 743 mmHg 76%
18:00 +17°C° 0.6 mm 3 m/S 742 mmHg 84%
19:00 +14°C° 0.6 mm 3 m/S 742 mmHg 93%
20:00 +14°C° 0.5 mm 4 m/S 742 mmHg 93%
21:00 +14°C° 0.5 mm 4 m/S 741 mmHg 94%
22:00 +14°C° 0.5 mm 5 m/S 741 mmHg 95%
23:00 +14°C° 0.2 mm 5 m/S 740 mmHg 95%

Morgen, 10 Juli, Freitag

Zeit Temperatur Niederschläge Wind Luftdruck Luftfeuchtigkeit
00:00 +15°C° 0.2 mm 5 m/S 740 mmHg 95%
01:00 +15°C° 0.2 mm 5 m/S 740 mmHg 95%
02:00 +15°C° 0.1 mm 5 m/S 740 mmHg 96%
03:00 +15°C° 0.1 mm 5 m/S 739 mmHg 96%
04:00 +15°C° 0.1 mm 5 m/S 739 mmHg 96%
05:00 +16°C° 0 mm 5 m/S 739 mmHg 94%
06:00 +16°C° 0 mm 5 m/S 740 mmHg 92%
07:00 +17°C° 0 mm 5 m/S 740 mmHg 90%
08:00 +17°C° 0.1 mm 5 m/S 740 mmHg 86%
09:00 +19°C° 0.1 mm 5 m/S 740 mmHg 82%
10:00 +20°C° 0.1 mm 5 m/S 741 mmHg 78%
11:00 +21°C° 0.1 mm 5 m/S 741 mmHg 75%
12:00 +22°C° 0.1 mm 4 m/S 740 mmHg 72%
13:00 +23°C° 0.1 mm 4 m/S 740 mmHg 69%
14:00 +23°C° 0.2 mm 4 m/S 740 mmHg 70%
15:00 +22°C° 0.2 mm 3 m/S 740 mmHg 71%
16:00 +22°C° 0.2 mm 3 m/S 740 mmHg 72%
17:00 +22°C° 0.8 mm 3 m/S 739 mmHg 78%
18:00 +21°C° 0.8 mm 3 m/S 739 mmHg 83%
19:00 +21°C° 0.8 mm 4 m/S 738 mmHg 88%
20:00 +20°C° 0.3 mm 4 m/S 739 mmHg 90%
21:00 +19°C° 0.3 mm 4 m/S 739 mmHg 92%
22:00 +18°C° 0.3 mm 4 m/S 739 mmHg 94%
23:00 +18°C° 0 mm 4 m/S 740 mmHg 95%

übermorgen, 11 Juli, Samstag

Zeit Temperatur Niederschläge Wind Luftdruck Luftfeuchtigkeit
00:00 +17°C° 0 mm 4 m/S 741 mmHg 95%
01:00 +15°C° 0 mm 5 m/S 741 mmHg 96%
02:00 +15°C° 0 mm 4 m/S 742 mmHg 95%
03:00 +14°C° 0 mm 4 m/S 742 mmHg 95%
04:00 +13°C° 0 mm 4 m/S 743 mmHg 95%
05:00 +13°C° 0 mm 4 m/S 743 mmHg 91%
06:00 +13°C° 0 mm 3 m/S 744 mmHg 87%
07:00 +14°C° 0 mm 3 m/S 744 mmHg 83%
08:00 +16°C° 0 mm 3 m/S 745 mmHg 78%
09:00 +16°C° 0 mm 3 m/S 746 mmHg 73%
10:00 +17°C° 0 mm 3 m/S 746 mmHg 68%
11:00 +17°C° 0.1 mm 2 m/S 747 mmHg 67%
12:00 +17°C° 0.1 mm 2 m/S 747 mmHg 66%
13:00 +17°C° 0.1 mm 2 m/S 747 mmHg 65%
14:00 +17°C° 0.1 mm 2 m/S 747 mmHg 65%
15:00 +17°C° 0.1 mm 2 m/S 747 mmHg 65%
16:00 +17°C° 0.1 mm 2 m/S 748 mmHg 65%
17:00 +17°C° 0.1 mm 2 m/S 748 mmHg 70%
18:00 +16°C° 0.1 mm 2 m/S 748 mmHg 76%
19:00 +15°C° 0.1 mm 2 m/S 748 mmHg 81%
20:00 +14°C° 0 mm 2 m/S 748 mmHg 83%
21:00 +14°C° 0 mm 2 m/S 748 mmHg 85%
22:00 +13°C° 0 mm 1 m/S 748 mmHg 87%
23:00 +12°C° 0 mm 1 m/S 748 mmHg 88%

12 Juli, Sonntag

Zeit Temperatur Niederschläge Wind Luftdruck Luftfeuchtigkeit
00:00 +12°C° 0 mm 1 m/S 748 mmHg 89%
01:00 +11°C° 0 mm 1 m/S 748 mmHg 90%
02:00 +11°C° 0 mm 1 m/S 748 mmHg 89%
03:00 +11°C° 0 mm 1 m/S 748 mmHg 88%
04:00 +10°C° 0 mm 2 m/S 748 mmHg 87%
05:00 +12°C° 0 mm 2 m/S 748 mmHg 83%
06:00 +13°C° 0 mm 2 m/S 748 mmHg 78%
07:00 +13°C° 0 mm 3 m/S 749 mmHg 74%
08:00 +14°C° 0 mm 3 m/S 749 mmHg 69%
09:00 +16°C° 0 mm 3 m/S 749 mmHg 63%
10:00 +17°C° 0 mm 3 m/S 749 mmHg 58%
11:00 +18°C° 0 mm 3 m/S 749 mmHg 58%
12:00 +18°C° 0 mm 3 m/S 749 mmHg 57%
13:00 +18°C° 0 mm 3 m/S 749 mmHg 57%
14:00 +18°C° 0.1 mm 3 m/S 749 mmHg 59%
15:00 +18°C° 0.1 mm 3 m/S 748 mmHg 62%
16:00 +17°C° 0.1 mm 3 m/S 748 mmHg 64%
17:00 +16°C° 0.2 mm 2 m/S 748 mmHg 71%
18:00 +15°C° 0.2 mm 2 m/S 748 mmHg 77%
19:00 +14°C° 0.2 mm 2 m/S 748 mmHg 84%
20:00 +13°C° 0 mm 2 m/S 748 mmHg 86%
21:00 +12°C° 0 mm 1 m/S 748 mmHg 89%
22:00 +11°C° 0 mm 1 m/S 748 mmHg 91%
23:00 +11°C° 0 mm 1 m/S 748 mmHg 92%

13 Juli, Montag

Zeit Temperatur Niederschläge Wind Luftdruck Luftfeuchtigkeit
00:00 +11°C° 0 mm 1 m/S 748 mmHg 92%
01:00 +11°C° 0 mm 1 m/S 748 mmHg 92%
02:00 +10°C° 0 mm 1 m/S 747 mmHg 93%
03:00 +9°C° 0 mm 2 m/S 747 mmHg 93%
04:00 +9°C° 0 mm 2 m/S 747 mmHg 94%
05:00 +10°C° 0 mm 2 m/S 747 mmHg 91%
06:00 +12°C° 0 mm 2 m/S 747 mmHg 87%
07:00 +14°C° 0 mm 2 m/S 747 mmHg 84%
08:00 +15°C° 0 mm 2 m/S 746 mmHg 76%
09:00 +17°C° 0 mm 3 m/S 746 mmHg 68%
10:00 +19°C° 0 mm 3 m/S 746 mmHg 60%
11:00 +19°C° 0.1 mm 3 m/S 746 mmHg 58%
12:00 +20°C° 0.1 mm 3 m/S 746 mmHg 56%
13:00 +21°C° 0.1 mm 3 m/S 745 mmHg 54%
14:00 +20°C° 0.1 mm 4 m/S 745 mmHg 57%
15:00 +20°C° 0.1 mm 4 m/S 745 mmHg 59%
16:00 +20°C° 0.1 mm 5 m/S 745 mmHg 61%
17:00 +19°C° 0.1 mm 4 m/S 745 mmHg 65%
18:00 +17°C° 0.1 mm 4 m/S 745 mmHg 70%
19:00 +16°C° 0.1 mm 3 m/S 745 mmHg 75%
20:00 +14°C° 0 mm 3 m/S 745 mmHg 81%
21:00 +12°C° 0 mm 3 m/S 745 mmHg 86%
22:00 +12°C° 0 mm 2 m/S 745 mmHg 92%
23:00 +10°C° 0 mm 2 m/S 745 mmHg 93%

14 Juli, Dienstag

Zeit Temperatur Niederschläge Wind Luftdruck Luftfeuchtigkeit
00:00 +10°C° 0 mm 3 m/S 745 mmHg 94%
01:00 +10°C° 0 mm 3 m/S 745 mmHg 94%
02:00 +10°C° 0 mm 3 m/S 744 mmHg 95%
03:00 +10°C° 0 mm 3 m/S 744 mmHg 95%
04:00 +9°C° 0 mm 3 m/S 744 mmHg 96%
05:00 +11°C° 0 mm 3 m/S 744 mmHg 89%
06:00 +13°C° 0 mm 3 m/S 744 mmHg 83%
07:00 +14°C° 0 mm 4 m/S 744 mmHg 76%
08:00 +17°C° 0 mm 4 m/S 744 mmHg 70%
09:00 +18°C° 0 mm 4 m/S 744 mmHg 65%
10:00 +20°C° 0 mm 4 m/S 744 mmHg 59%
11:00 +20°C° 0.1 mm 4 m/S 744 mmHg 57%
12:00 +21°C° 0.1 mm 4 m/S 744 mmHg 55%
13:00 +21°C° 0.1 mm 5 m/S 744 mmHg 52%
14:00 +21°C° 0 mm 5 m/S 743 mmHg 55%
15:00 +21°C° 0 mm 5 m/S 743 mmHg 57%
16:00 +20°C° 0 mm 5 m/S 743 mmHg 59%
17:00 +19°C° 0 mm 4 m/S 743 mmHg 67%
18:00 +18°C° 0 mm 4 m/S 743 mmHg 74%
19:00 +16°C° 0 mm 3 m/S 743 mmHg 81%
20:00 +14°C° 0 mm 3 m/S 743 mmHg 85%
21:00 +13°C° 0 mm 3 m/S 743 mmHg 90%
22:00 +11°C° 0 mm 3 m/S 743 mmHg 94%
23:00 +11°C° 0 mm 3 m/S 743 mmHg 93%
Mehr zeigen